Overview Statistics Trail Chart Weather Telemetry Raw packets
 

This is the latest recevied weather packets stored in our database for station/object JS2QVS-13. If no packets are shown the sender has not sent any weather packets the latest 10 day(s).

<< 50 51 52 53 54 55 56 >>
Time Temp. Humidity Pressure Rain* Wind** Luminosity Snow
1787793662 31.67° C 63% 1004.3 hPa 0 mm - - -
1787793058 31.67° C 61% 1004.4 hPa 0 mm - - -
1787792458 31.11° C 66% 1004.4 hPa 0 mm - - -
1787791857 31.11° C 67% 1004.6 hPa 0 mm - - -
1787791258 31.11° C 67% 1004.6 hPa 0 mm - - -
1787790657 31.11° C 67% 1004.6 hPa 0 mm - - -
1787790057 31.67° C 65% 1004.4 hPa 0 mm - - -
1787789457 31.11° C 65% 1004.4 hPa 0 mm - - -
1787788857 31.11° C 68% 1004.3 hPa 0 mm - - -
1787788257 31.11° C 67% 1004.3 hPa 0 mm - - -
1787787657 31.11° C 66% 1004.3 hPa 0 mm - - -
1787787057 30.56° C 68% 1004.2 hPa 0 mm - - -
1787786457 30.56° C 69% 1004.5 hPa 0 mm - - -
1787785856 30.56° C 69% 1004.6 hPa 0 mm - - -
1787785256 30° C 68% 1004.7 hPa 0 mm - - -
1787784656 29.44° C 72% 1004.9 hPa 0 mm - - -
1787784058 29.44° C 72% 1004.8 hPa 0 mm - - -
1787783458 29.44° C 72% 1005 hPa 0 mm - - -
1787782858 29.44° C 73% 1005.2 hPa 0 mm - - -
1787782264 29.44° C 73% 1005.1 hPa 0 mm - - -
1787781658 29.44° C 74% 1005.3 hPa 0 mm - - -
1787781058 28.89° C 77% 1005.3 hPa 0 mm - - -
1787780458 28.89° C 77% 1005.3 hPa 0 mm - - -
1787779858 28.89° C 78% 1005.2 hPa 0 mm - - -
1787779257 28.89° C 79% 1005.2 hPa 0 mm - - -

* Rain latest hour (hover to see other rain measurements)
** Current wind speed in m/s (hover to see current wind gust speed)